Stations météo

réclame
Mon MeteoGroup
Gunnarn A, Suède (2126): Température de l'air & dewpoint: 18.10.2018 07:00:00 - 24.10.2018 07:00:00 (CEST)Gunnarn A, Suède (2126): Vitesse du vent & gusts: 18.10.2018 07:00:00 - 24.10.2018 07:00:00 (CEST)Gunnarn A, Suède (2126): Direction du vent: 18.10.2018 07:00:00 - 24.10.2018 07:00:00 (CEST)Gunnarn A, Suède (2126): reduced air pressure: 18.10.2018 07:00:00 - 24.10.2018 07:00:00 (CEST)Gunnarn A, Suède (2126): visibility: 18.10.2018 07:00:00 - 24.10.2018 07:00:00 (CEST)Gunnarn A, Suède (2126): Quantités de précipitations: 18.10.2018 07:00:00 - 24.10.2018 07:00:00 (CEST)
Date & Time tt [°C] td [°C] ff [km/h] ff [knt] fx [km/h] fx [knt] dd ppp [hPa] vv [km] rr [mm]
24.10.2018 07:00:00 -6,4 -6,9 3 1 6 3 SSW 997,3 50 0,0
24.10.2018 06:00:00 -5,7 -6,4 2 1 6 3 NE 997,1 50 0,0
24.10.2018 05:00:00 -5,2 -5,7 0 0 7 4 N 997,1 50 0,0
24.10.2018 04:00:00 -4,3 -4,8 4 2 14 8 NW 996,6 50 0,0
24.10.2018 03:00:00 -4,4 -5,4 0 0 18 10 N 996,1 50 0,0
24.10.2018 02:00:00 -2,9 -4,5 6 3 20 11 W 995,7 50 0,0
24.10.2018 01:00:00 -1,9 -3,3 12 6 20 11 WNW 995,2 50 0,0
24.10.2018 00:00:00 -2,0 -3,1 9 5 21 11 WNW 994,9 50 0,0
23.10.2018 23:00:00 -1,3 -2,7 10 5 21 11 WNW 994,4 50 0,0
23.10.2018 22:00:00 -0,4 -2,8 12 6 24 13 WNW 993,6 50 0,0
23.10.2018 21:00:00 0,5 -1,6 13 7 24 13 WNW 992,8 50 0,0
23.10.2018 20:00:00 0,8 -0,2 9 5 16 9 WNW 992,0 50 0,0
23.10.2018 19:00:00 0,8 0,2 9 5 16 9 WNW 991,4 19 0,0
23.10.2018 18:00:00 0,6 0,2 8 4 14 8 WNW 990,9 9 0,2
23.10.2018 17:00:00 0,7 0,0 6 3 14 7 WNW 990,4 6 0,1
23.10.2018 16:00:00 0,7 -0,3 3 2 14 7 NNW 990,0 25 0,1
23.10.2018 15:00:00 1,4 -1,3 4 2 10 5 WSW 989,8 50 0,0
23.10.2018 14:00:00 1,7 -1,0 0 0 7 4 N 989,9 50 0,0
23.10.2018 13:00:00 1,4 -1,5 0 0 7 4 N 990,2 50 0,0
23.10.2018 12:00:00 0,1 -2,6 2 1 6 3 ESE 990,5 50 0,0
23.10.2018 11:00:00 -1,7 -2,7 0 0 6 4 N 990,8 50 0,0
23.10.2018 10:00:00 -3,6 -4,1 3 2 6 4 E 991,2 50 0,0
23.10.2018 09:00:00 -6,1 -6,8 3 2 8 4 S 991,7 50 0,0
23.10.2018 08:00:00 -5,6 -6,3 0 0 8 4 N 991,7 50 0,0
23.10.2018 07:00:00 -5,5 -6,0 0 0 8 4 N 992,0 10 0,0
23.10.2018 06:00:00 -4,0 -4,5 5 3 18 10 ENE 992,7 50 0,0
23.10.2018 05:00:00 - - - - 18 10 - - - -
23.10.2018 04:00:00 -1,7 -3,9 10 5 18 10 WSW 993,7 50 0,0
23.10.2018 03:00:00 -0,9 -3,6 8 4 16 9 SW 994,3 50 0,0
23.10.2018 02:00:00 -1,5 -4,7 6 3 26 14 SW 994,8 50 0,0
23.10.2018 01:00:00 -0,1 -3,6 6 3 29 16 SSW 995,2 50 0,0
23.10.2018 00:00:00 1,1 -3,2 18 10 34 19 WSW 995,7 50 0,0
22.10.2018 23:00:00 0,9 -3,2 18 10 34 19 WSW 996,5 50 0,0
22.10.2018 22:00:00 0,8 -3,3 12 6 24 13 WSW 997,2 50 0,0
22.10.2018 21:00:00 1,2 -3,7 10 6 32 17 WSW 997,6 50 0,0
22.10.2018 20:00:00 2,6 -2,7 16 9 40 22 WSW 997,8 50 0,0
22.10.2018 19:00:00 2,6 -1,2 19 11 40 22 W 998,0 50 0,0
22.10.2018 18:00:00 3,8 -2,0 18 10 38 21 W 997,8 50 0,0
22.10.2018 17:00:00 3,6 -1,4 15 8 38 21 WSW 997,3 50 0,0
22.10.2018 16:00:00 4,2 -2,0 21 11 36 19 WSW 997,2 50 0,0
22.10.2018 15:00:00 4,3 -2,6 16 9 - - WSW 997,1 50 0,0
22.10.2018 14:00:00 5,2 -2,9 19 10 39 21 WSW 996,8 50 0,0
22.10.2018 13:00:00 4,6 -1,4 19 10 49 26 WSW 996,8 50 0,0
22.10.2018 12:00:00 4,5 -1,1 22 12 55 30 WSW 997,1 48 0,0
22.10.2018 11:00:00 4,2 -1,8 31 17 60 33 WSW 996,7 50 0,0
22.10.2018 10:00:00 4,0 -2,0 36 19 60 33 SW 996,6 50 0,0
22.10.2018 09:00:00 3,1 -1,5 27 15 49 26 SW 997,2 50 0,0
22.10.2018 08:00:00 2,6 -0,7 19 10 30 16 SW 998,0 50 0,0
22.10.2018 07:00:00 2,4 -1,2 15 8 29 16 SSW 998,4 50 0,0
22.10.2018 06:00:00 1,4 -2,4 8 4 20 11 SSW 999,1 50 0,0
22.10.2018 05:00:00 2,0 -2,1 12 7 26 14 WSW 999,5 47 0,0
22.10.2018 04:00:00 2,4 -1,8 14 7 30 16 WSW 999,4 43 0,0
22.10.2018 03:00:00 3,4 -2,1 15 8 34 18 WSW 999,4 43 0,0
22.10.2018 02:00:00 4,1 -2,3 19 10 34 18 WSW 998,8 48 0,0
22.10.2018 01:00:00 4,9 -0,3 18 10 32 17 WSW 999,0 50 0,0
22.10.2018 00:00:00 5,3 1,0 19 11 32 17 WSW 999,0 50 0,0
21.10.2018 23:00:00 5,8 1,5 17 9 26 14 SW 999,4 50 0,0
21.10.2018 22:00:00 6,1 1,4 13 7 23 13 WSW 999,6 50 0,0
21.10.2018 21:00:00 6,7 1,8 13 7 23 12 WSW 1000,3 50 0,0
21.10.2018 20:00:00 7,2 2,5 8 5 29 16 SW 1001,0 50 0,0
21.10.2018 19:00:00 7,3 2,8 11 6 34 19 WSW 1001,3 50 0,0
21.10.2018 18:00:00 7,8 2,7 15 8 34 19 SW 1001,6 50 0,0
21.10.2018 17:00:00 8,2 2,9 17 9 33 18 SW 1001,8 50 0,0
21.10.2018 16:00:00 8,4 3,0 18 10 42 23 WSW 1002,5 44 0,0
21.10.2018 15:00:00 9,0 3,0 21 11 45 25 WSW 1002,6 43 0,0
21.10.2018 14:00:00 9,3 2,8 24 13 45 25 WSW 1003,8 32 0,0
21.10.2018 13:00:00 9,0 3,0 27 15 45 24 SW 1003,9 41 0,0
21.10.2018 12:00:00 8,5 4,5 22 12 39 21 SSW 1004,4 50 0,0
21.10.2018 11:00:00 7,0 4,8 15 8 38 21 SSW 1005,1 50 0,0
21.10.2018 10:00:00 6,6 4,1 18 10 38 21 SSW 1005,4 50 0,0
21.10.2018 09:00:00 6,1 3,9 13 7 33 18 SSW 1005,0 50 0,0
21.10.2018 08:00:00 5,3 3,6 16 8 35 19 SSW 1004,9 50 0,0
21.10.2018 07:00:00 4,7 3,5 6 4 35 19 S 1006,3 50 0,5
21.10.2018 06:00:00 4,5 3,0 16 9 29 16 SSW 1007,1 13 1,0
21.10.2018 05:00:00 5,0 2,5 10 6 29 15 S 1007,5 44 0,0
21.10.2018 04:00:00 4,9 2,8 11 6 26 14 S 1008,6 16 0,3
21.10.2018 03:00:00 5,0 2,7 6 3 22 12 S 1009,9 28 0,0
21.10.2018 02:00:00 5,1 2,1 8 5 18 10 S 1011,7 50 0,0
21.10.2018 01:00:00 4,4 1,8 6 3 16 9 S 1012,9 50 0,0
21.10.2018 00:00:00 1,5 1,1 5 3 12 7 S 1014,2 50 0,0
20.10.2018 23:00:00 2,3 1,0 3 2 20 11 SE 1015,1 50 0,0
20.10.2018 22:00:00 2,8 1,5 6 3 20 11 SSE 1015,6 50 0,0
20.10.2018 21:00:00 -0,5 -0,8 3 1 13 7 ENE 1016,9 35 0,0
20.10.2018 20:00:00 -1,2 -1,8 4 2 13 7 SSE 1017,6 44 0,0
20.10.2018 19:00:00 0,1 -0,2 6 3 10 5 S 1017,6 14 0,0
20.10.2018 18:00:00 2,1 2,0 4 2 7 4 S 1017,9 9 0,0
20.10.2018 17:00:00 3,1 2,5 0 0 13 7 N 1017,8 41 0,0
20.10.2018 16:00:00 5,5 3,0 5 3 13 7 WSW 1017,4 50 0,0
20.10.2018 15:00:00 7,0 4,7 5 3 13 7 WSW 1017,6 50 0,0
20.10.2018 14:00:00 7,0 4,3 5 3 13 7 WSW 1017,5 50 0,0
20.10.2018 13:00:00 5,7 4,7 4 2 8 4 NNW 1017,5 42 0,0
20.10.2018 12:00:00 5,1 4,7 2 1 5 3 E 1017,5 50 0,1
20.10.2018 11:00:00 3,8 3,4 2 1 4 2 W 1017,8 19 0,2
20.10.2018 10:00:00 3,1 2,8 2 1 4 2 NNW 1017,4 24 0,2
20.10.2018 09:00:00 2,3 1,9 0 0 4 2 N 1017,1 50 0,1
20.10.2018 08:00:00 1,8 1,4 0 0 3 2 N 1016,9 38 0,1
20.10.2018 07:00:00 1,9 1,2 0 0 5 3 N 1017,0 50 0,0
20.10.2018 06:00:00 1,7 0,8 0 0 5 3 N 1017,0 50 0,0
20.10.2018 05:00:00 1,5 0,8 0 0 4 2 N 1017,0 50 0,0
20.10.2018 04:00:00 1,9 1,0 0 0 6 4 N 1017,0 50 0,0
20.10.2018 03:00:00 2,3 1,1 2 1 6 4 SSE 1016,9 50 0,0
20.10.2018 02:00:00 2,3 1,3 2 1 5 3 SSE 1017,1 50 0,0
20.10.2018 01:00:00 3,1 1,3 3 1 6 4 ENE 1017,1 50 0,0
20.10.2018 00:00:00 4,0 1,5 5 3 8 4 W 1017,0 50 0,0
19.10.2018 23:00:00 3,3 1,3 4 2 8 4 NW 1017,1 50 0,0
19.10.2018 22:00:00 2,4 0,8 3 1 6 3 WSW 1017,5 50 0,0
19.10.2018 21:00:00 2,8 0,9 0 0 10 5 N 1017,7 50 0,0
19.10.2018 20:00:00 - - - - - - - - - -
19.10.2018 19:00:00 2,6 0,2 3 2 14 7 NNE 1017,3 50 0,0
19.10.2018 18:00:00 2,9 0,0 0 0 14 7 N 1017,2 50 0,0
19.10.2018 17:00:00 3,8 -0,6 3 1 28 15 NW 1017,2 50 0,0
19.10.2018 16:00:00 6,5 -0,7 10 5 34 18 W 1016,6 50 0,0
19.10.2018 15:00:00 8,1 -0,7 19 10 34 18 WNW 1016,3 50 0,0
19.10.2018 14:00:00 8,4 -0,1 13 7 33 18 W 1016,2 50 0,0
19.10.2018 13:00:00 8,3 0,3 15 8 33 18 WNW 1016,1 50 0,0
19.10.2018 12:00:00 8,2 0,4 16 9 27 15 W 1016,1 50 0,0
19.10.2018 11:00:00 7,2 0,8 12 7 29 16 W 1015,7 50 0,0
19.10.2018 10:00:00 6,3 0,8 13 7 29 16 W 1015,7 50 0,0
19.10.2018 09:00:00 5,2 0,8 7 4 33 18 SSW 1015,0 50 0,0
19.10.2018 08:00:00 5,2 0,6 10 6 33 18 SW 1014,1 50 0,0
19.10.2018 07:00:00 5,4 0,6 16 9 31 17 WSW 1013,5 50 0,0
19.10.2018 06:00:00 5,7 0,7 16 8 27 14 SW 1013,1 50 0,0
19.10.2018 05:00:00 5,2 0,2 13 7 32 18 SW 1012,5 50 0,0
19.10.2018 04:00:00 6,3 0,4 14 8 36 19 WSW 1012,1 50 0,0
19.10.2018 03:00:00 6,1 0,2 21 11 37 20 WSW 1011,7 50 0,0
19.10.2018 02:00:00 6,0 -0,1 23 12 37 20 WSW 1010,9 50 0,0
19.10.2018 01:00:00 6,6 0,1 17 9 33 18 W 1010,6 50 0,0
19.10.2018 00:00:00 5,2 0,2 18 10 37 20 WSW 1010,4 50 0,0
18.10.2018 23:00:00 5,6 0,0 12 7 39 21 W 1010,1 50 0,0
18.10.2018 22:00:00 6,2 0,3 16 9 39 21 W 1009,6 50 0,0
18.10.2018 21:00:00 6,4 0,3 21 11 37 20 W 1009,1 50 0,0
18.10.2018 20:00:00 6,7 0,4 16 8 44 24 W 1009,1 50 0,0
18.10.2018 19:00:00 6,4 0,7 22 12 44 24 WSW 1008,7 50 0,0
18.10.2018 18:00:00 5,6 1,0 18 10 44 24 WSW 1008,7 50 0,0
18.10.2018 17:00:00 6,6 0,7 22 12 44 24 WSW 1008,5 50 0,0
18.10.2018 16:00:00 7,2 1,1 24 13 44 24 WSW 1008,2 50 0,0
18.10.2018 15:00:00 7,2 0,6 18 10 44 24 SW 1008,2 50 0,0
18.10.2018 14:00:00 7,2 0,4 21 11 41 22 WSW 1008,1 50 0,0
18.10.2018 13:00:00 7,4 -0,1 18 10 41 22 WSW 1008,6 47 0,0
18.10.2018 12:00:00 7,1 0,5 27 15 41 22 WSW 1009,0 50 0,0
18.10.2018 11:00:00 6,6 1,5 15 8 33 18 W 1009,5 50 0,0
18.10.2018 10:00:00 5,9 1,4 19 10 32 17 WSW 1009,5 50 0,0
18.10.2018 09:00:00 5,2 1,1 21 12 31 17 SW 1009,2 50 0,0
18.10.2018 08:00:00 4,7 0,8 16 9 30 16 SW 1008,9 50 0,0
18.10.2018 07:00:00 4,6 1,1 9 5 25 14 SSW 1009,2 50 0,0

tt = Température de l'air
td = dewpoint
ff = Vitesse du vent
fx = gusts
dd = Direction du vent
ppp = reduced air pressure
vv = visibility
rr = Quantités de précipitations

stations d'obs. à proximité